Previsão horária em Barra Velha

Hoje, 28 Outubro, Quarta-feira

Tempo Temperatura Precipitação Vento Pressão Humidade
00:00 +21°C° 0.2 mm 1 m/s 753 mmHg 98%
01:00 +21°C° 0 mm 1 m/s 753 mmHg 98%
02:00 +20°C° 0 mm 1 m/s 753 mmHg 98%
03:00 +20°C° 0 mm 1 m/s 753 mmHg 98%
04:00 +19°C° 0 mm 1 m/s 753 mmHg 97%
05:00 +18°C° 0 mm 2 m/s 753 mmHg 97%
06:00 +17°C° 0 mm 2 m/s 753 mmHg 96%
07:00 +20°C° 0 mm 2 m/s 753 mmHg 80%
08:00 +25°C° 0 mm 3 m/s 753 mmHg 64%
09:00 +28°C° 0 mm 3 m/s 754 mmHg 48%
10:00 +30°C° 0 mm 3 m/s 753 mmHg 41%
11:00 +33°C° 0 mm 3 m/s 753 mmHg 33%
12:00 +35°C° 0 mm 2 m/s 753 mmHg 25%
13:00 +36°C° 0 mm 2 m/s 752 mmHg 25%
14:00 +36°C° 0 mm 2 m/s 752 mmHg 25%
15:00 +37°C° 0 mm 2 m/s 752 mmHg 24%
16:00 +33°C° 0 mm 3 m/s 752 mmHg 41%
17:00 +28°C° 0 mm 3 m/s 753 mmHg 57%
18:00 +25°C° 0 mm 4 m/s 753 mmHg 73%
19:00 +22°C° 0 mm 3 m/s 754 mmHg 81%
20:00 +21°C° 0 mm 3 m/s 756 mmHg 88%
21:00 +20°C° 0 mm 2 m/s 757 mmHg 95%
22:00 +20°C° 0 mm 1 m/s 757 mmHg 96%
23:00 +20°C° 0 mm 1 m/s 757 mmHg 97%

Amanhã, 29 Outubro, Quinta-feira

Tempo Temperatura Precipitação Vento Pressão Humidade
00:00 +18°C° 0 mm 0 m/s 757 mmHg 98%
01:00 +20°C° 0 mm 1 m/s 757 mmHg 98%
02:00 +19°C° 0 mm 1 m/s 757 mmHg 98%
03:00 +19°C° 0 mm 1 m/s 757 mmHg 98%
04:00 +20°C° 0 mm 1 m/s 757 mmHg 95%
05:00 +20°C° 0 mm 1 m/s 758 mmHg 93%
06:00 +21°C° 0 mm 1 m/s 758 mmHg 91%
07:00 +23°C° 0 mm 1 m/s 758 mmHg 82%
08:00 +25°C° 0 mm 1 m/s 759 mmHg 73%
09:00 +25°C° 0 mm 0 m/s 759 mmHg 64%
10:00 +28°C° 0 mm 1 m/s 759 mmHg 61%
11:00 +28°C° 0 mm 2 m/s 758 mmHg 59%
12:00 +29°C° 0 mm 2 m/s 758 mmHg 56%
13:00 +29°C° 0 mm 3 m/s 758 mmHg 59%
14:00 +28°C° 0 mm 3 m/s 758 mmHg 63%
15:00 +27°C° 0 mm 4 m/s 758 mmHg 66%
16:00 +26°C° 0 mm 4 m/s 758 mmHg 72%
17:00 +25°C° 0 mm 4 m/s 759 mmHg 77%
18:00 +22°C° 0 mm 4 m/s 759 mmHg 82%
19:00 +22°C° 0.1 mm 4 m/s 760 mmHg 83%
20:00 +21°C° 0.1 mm 5 m/s 761 mmHg 84%
21:00 +20°C° 0.1 mm 5 m/s 762 mmHg 85%
22:00 +20°C° 0.1 mm 5 m/s 762 mmHg 85%
23:00 +19°C° 0.1 mm 5 m/s 762 mmHg 85%

Depois de amanhã, 30 Outubro, Sexta-feira

Tempo Temperatura Precipitação Vento Pressão Humidade
00:00 +19°C° 0.1 mm 5 m/s 762 mmHg 84%
01:00 +19°C° 0 mm 5 m/s 762 mmHg 82%
02:00 +19°C° 0 mm 5 m/s 762 mmHg 80%
03:00 +19°C° 0 mm 5 m/s 762 mmHg 78%
04:00 +17°C° 0.1 mm 5 m/s 762 mmHg 78%
05:00 +17°C° 0.1 mm 5 m/s 763 mmHg 77%
06:00 +17°C° 0.1 mm 5 m/s 763 mmHg 76%
07:00 +19°C° 0 mm 5 m/s 763 mmHg 75%
08:00 +19°C° 0 mm 5 m/s 764 mmHg 73%
09:00 +20°C° 0 mm 5 m/s 764 mmHg 72%
10:00 +21°C° 0 mm 5 m/s 764 mmHg 67%
11:00 +22°C° 0 mm 6 m/s 764 mmHg 62%
12:00 +23°C° 0 mm 6 m/s 764 mmHg 57%
13:00 +23°C° 0 mm 6 m/s 764 mmHg 57%
14:00 +23°C° 0 mm 5 m/s 763 mmHg 58%
15:00 +22°C° 0 mm 5 m/s 763 mmHg 59%
16:00 +21°C° 0 mm 5 m/s 764 mmHg 62%
17:00 +21°C° 0 mm 5 m/s 764 mmHg 66%
18:00 +20°C° 0 mm 4 m/s 764 mmHg 69%
19:00 +19°C° 0 mm 4 m/s 765 mmHg 71%
20:00 +19°C° 0 mm 4 m/s 765 mmHg 72%
21:00 +19°C° 0 mm 4 m/s 766 mmHg 74%
22:00 +19°C° 0.1 mm 3 m/s 765 mmHg 75%
23:00 +18°C° 0.1 mm 3 m/s 765 mmHg 77%

31 Outubro, Sábado

Tempo Temperatura Precipitação Vento Pressão Humidade
00:00 +18°C° 0.1 mm 3 m/s 765 mmHg 78%
01:00 +18°C° 0 mm 3 m/s 765 mmHg 80%
02:00 +17°C° 0 mm 3 m/s 764 mmHg 82%
03:00 +17°C° 0 mm 2 m/s 764 mmHg 83%
04:00 +17°C° 0 mm 2 m/s 764 mmHg 83%
05:00 +17°C° 0 mm 2 m/s 764 mmHg 82%
06:00 +17°C° 0 mm 2 m/s 764 mmHg 82%
07:00 +18°C° 0 mm 2 m/s 764 mmHg 74%
08:00 +20°C° 0 mm 2 m/s 765 mmHg 67%
09:00 +23°C° 0 mm 2 m/s 765 mmHg 59%
10:00 +22°C° 0 mm 3 m/s 764 mmHg 60%
11:00 +22°C° 0 mm 3 m/s 764 mmHg 60%
12:00 +22°C° 0 mm 3 m/s 764 mmHg 60%
13:00 +22°C° 0 mm 3 m/s 763 mmHg 59%
14:00 +22°C° 0 mm 4 m/s 763 mmHg 58%
15:00 +22°C° 0 mm 4 m/s 763 mmHg 58%
16:00 +21°C° 0 mm 4 m/s 763 mmHg 63%
17:00 +20°C° 0 mm 4 m/s 763 mmHg 68%
18:00 +20°C° 0 mm 3 m/s 764 mmHg 73%
19:00 +19°C° 0 mm 3 m/s 764 mmHg 75%
20:00 +18°C° 0 mm 3 m/s 764 mmHg 76%
21:00 +18°C° 0 mm 3 m/s 765 mmHg 77%
22:00 +17°C° 0.2 mm 3 m/s 764 mmHg 80%
23:00 +17°C° 0.2 mm 3 m/s 764 mmHg 83%

1 Novembro, Domingo

Tempo Temperatura Precipitação Vento Pressão Humidade
00:00 +17°C° 0.2 mm 3 m/s 764 mmHg 87%
01:00 +17°C° 0.6 mm 3 m/s 764 mmHg 89%
02:00 +17°C° 0.6 mm 3 m/s 763 mmHg 92%
03:00 +17°C° 0.6 mm 3 m/s 763 mmHg 94%
04:00 +17°C° 0.7 mm 3 m/s 763 mmHg 96%
05:00 +16°C° 0.7 mm 3 m/s 763 mmHg 97%
06:00 +16°C° 0.7 mm 3 m/s 763 mmHg 98%
07:00 +17°C° 0.5 mm 3 m/s 764 mmHg 96%
08:00 +18°C° 0.5 mm 3 m/s 764 mmHg 94%
09:00 +19°C° 0.5 mm 3 m/s 764 mmHg 92%
10:00 +19°C° 0.6 mm 3 m/s 764 mmHg 89%
11:00 +20°C° 0.6 mm 3 m/s 764 mmHg 86%
12:00 +20°C° 0.6 mm 4 m/s 764 mmHg 84%
13:00 +21°C° 0.1 mm 4 m/s 764 mmHg 76%
14:00 +21°C° 0.1 mm 4 m/s 763 mmHg 69%
15:00 +22°C° 0.1 mm 4 m/s 763 mmHg 61%
16:00 +21°C° 0.1 mm 4 m/s 763 mmHg 70%
17:00 +19°C° 0.1 mm 4 m/s 763 mmHg 78%
18:00 +18°C° 0.1 mm 3 m/s 763 mmHg 86%
19:00 +18°C° 0.1 mm 3 m/s 763 mmHg 87%
20:00 +17°C° 0.1 mm 3 m/s 763 mmHg 87%
21:00 +17°C° 0.1 mm 3 m/s 764 mmHg 88%
22:00 +17°C° 0 mm 3 m/s 764 mmHg 88%
23:00 +17°C° 0 mm 2 m/s 764 mmHg 88%

2 Novembro, Segunda-feira

Tempo Temperatura Precipitação Vento Pressão Humidade
00:00 +16°C° 0 mm 2 m/s 764 mmHg 88%
01:00 +16°C° 0 mm 2 m/s 763 mmHg 88%
02:00 +16°C° 0 mm 2 m/s 763 mmHg 89%
03:00 +16°C° 0 mm 2 m/s 762 mmHg 90%
04:00 +16°C° 0.1 mm 1 m/s 762 mmHg 90%
05:00 +16°C° 0.1 mm 1 m/s 762 mmHg 89%
06:00 +16°C° 0.1 mm 1 m/s 763 mmHg 89%
07:00 +16°C° 0.3 mm 1 m/s 763 mmHg 88%
08:00 +18°C° 0.3 mm 1 m/s 763 mmHg 87%
09:00 +19°C° 0.3 mm 1 m/s 763 mmHg 85%
10:00 +20°C° 0.1 mm 1 m/s 763 mmHg 80%
11:00 +21°C° 0.1 mm 1 m/s 763 mmHg 75%
12:00 +22°C° 0.1 mm 1 m/s 763 mmHg 70%
13:00 +23°C° 0 mm 2 m/s 762 mmHg 65%
14:00 +23°C° 0 mm 2 m/s 762 mmHg 60%
15:00 +24°C° 0 mm 3 m/s 761 mmHg 55%
16:00 +22°C° 0 mm 3 m/s 761 mmHg 60%
17:00 +21°C° 0 mm 3 m/s 761 mmHg 64%
18:00 +20°C° 0 mm 3 m/s 761 mmHg 69%
19:00 +19°C° 0 mm 2 m/s 762 mmHg 74%
20:00 +18°C° 0 mm 2 m/s 762 mmHg 78%
21:00 +16°C° 0 mm 1 m/s 763 mmHg 83%
22:00 +18°C° 0 mm 1 m/s 763 mmHg 82%
23:00 +18°C° 0 mm 1 m/s 763 mmHg 81%
Mostrar mais